<?xml version="1.0"?>
<gpx xmlns="http://www.topografix.com/GPX/1/1" xmlns:xsi="http://www.w3.org/2001/XMLSchema-instance" version="1.1" creator="GPX RubyGem 1.0.0 -- http://dougfales.github.io/gpx/" xsi:schemaLocation="http://www.topografix.com/GPX/1/1 http://www.topografix.com/GPX/1/1/gpx.xsd">
  <metadata>
    <name/>
    <time>2026-05-09T18:42:55+00:00</time>
    <bound minlat="90.0" minlon="180.0" maxlat="-90.0" maxlon="-180.0"/>
  </metadata>
  <trk>
    <name/>
    <trkseg>
      <trkpt lat="51.751975" lon="10.385207">
        <time>1970-01-01T00:00:00+00:00</time>
        <ele>387.0</ele>
      </trkpt>
      <trkpt lat="51.751882" lon="10.385237">
        <time>1970-01-01T00:00:00+00:00</time>
        <ele>389.0</ele>
      </trkpt>
      <trkpt lat="51.751729" lon="10.385183">
        <time>1970-01-01T00:00:00+00:00</time>
        <ele>393.0</ele>
      </trkpt>
      <trkpt lat="51.751542" lon="10.38496">
        <time>1970-01-01T00:00:00+00:00</time>
        <ele>401.0</ele>
      </trkpt>
      <trkpt lat="51.751435" lon="10.385031">
        <time>1970-01-01T00:00:00+00:00</time>
        <ele>405.0</ele>
      </trkpt>
      <trkpt lat="51.751348" lon="10.384917">
        <time>1970-01-01T00:00:00+00:00</time>
        <ele>407.0</ele>
      </trkpt>
      <trkpt lat="51.751162" lon="10.38489">
        <time>1970-01-01T00:00:00+00:00</time>
        <ele>412.0</ele>
      </trkpt>
      <trkpt lat="51.750772" lon="10.385004">
        <time>1970-01-01T00:00:00+00:00</time>
        <ele>419.0</ele>
      </trkpt>
      <trkpt lat="51.750417" lon="10.385167">
        <time>1970-01-01T00:00:00+00:00</time>
        <ele>419.0</ele>
      </trkpt>
      <trkpt lat="51.750286" lon="10.385117">
        <time>1970-01-01T00:00:00+00:00</time>
        <ele>420.0</ele>
      </trkpt>
      <trkpt lat="51.750051" lon="10.384963">
        <time>1970-01-01T00:00:00+00:00</time>
        <ele>430.0</ele>
      </trkpt>
      <trkpt lat="51.74878" lon="10.384034">
        <time>1970-01-01T00:00:00+00:00</time>
        <ele>464.0</ele>
      </trkpt>
      <trkpt lat="51.748468" lon="10.38388">
        <time>1970-01-01T00:00:00+00:00</time>
        <ele>466.0</ele>
      </trkpt>
      <trkpt lat="51.746597" lon="10.384217">
        <time>1970-01-01T00:00:00+00:00</time>
        <ele>497.0</ele>
      </trkpt>
      <trkpt lat="51.746865" lon="10.38447">
        <time>1970-01-01T00:00:00+00:00</time>
        <ele>496.0</ele>
      </trkpt>
      <trkpt lat="51.74725" lon="10.384835">
        <time>1970-01-01T00:00:00+00:00</time>
        <ele>496.0</ele>
      </trkpt>
      <trkpt lat="51.747441" lon="10.385095">
        <time>1970-01-01T00:00:00+00:00</time>
        <ele>497.0</ele>
      </trkpt>
      <trkpt lat="51.74784" lon="10.385535">
        <time>1970-01-01T00:00:00+00:00</time>
        <ele>500.0</ele>
      </trkpt>
      <trkpt lat="51.747937" lon="10.38579">
        <time>1970-01-01T00:00:00+00:00</time>
        <ele>499.0</ele>
      </trkpt>
      <trkpt lat="51.747914" lon="10.386115">
        <time>1970-01-01T00:00:00+00:00</time>
        <ele>498.0</ele>
      </trkpt>
      <trkpt lat="51.747506" lon="10.386852">
        <time>1970-01-01T00:00:00+00:00</time>
        <ele>507.0</ele>
      </trkpt>
      <trkpt lat="51.747152" lon="10.387835">
        <time>1970-01-01T00:00:00+00:00</time>
        <ele>514.0</ele>
      </trkpt>
      <trkpt lat="51.747056" lon="10.388099">
        <time>1970-01-01T00:00:00+00:00</time>
        <ele>515.0</ele>
      </trkpt>
      <trkpt lat="51.746251" lon="10.389855">
        <time>1970-01-01T00:00:00+00:00</time>
        <ele>515.0</ele>
      </trkpt>
      <trkpt lat="51.745973" lon="10.39022">
        <time>1970-01-01T00:00:00+00:00</time>
        <ele>513.0</ele>
      </trkpt>
      <trkpt lat="51.745889" lon="10.39033">
        <time>1970-01-01T00:00:00+00:00</time>
        <ele>511.0</ele>
      </trkpt>
      <trkpt lat="51.74581" lon="10.390561">
        <time>1970-01-01T00:00:00+00:00</time>
        <ele>512.0</ele>
      </trkpt>
      <trkpt lat="51.745787" lon="10.390644">
        <time>1970-01-01T00:00:00+00:00</time>
        <ele>512.0</ele>
      </trkpt>
      <trkpt lat="51.745784" lon="10.390716">
        <time>1970-01-01T00:00:00+00:00</time>
        <ele>513.0</ele>
      </trkpt>
      <trkpt lat="51.745717" lon="10.391018">
        <time>1970-01-01T00:00:00+00:00</time>
        <ele>514.0</ele>
      </trkpt>
      <trkpt lat="51.745692" lon="10.391301">
        <time>1970-01-01T00:00:00+00:00</time>
        <ele>516.0</ele>
      </trkpt>
      <trkpt lat="51.745731" lon="10.391511">
        <time>1970-01-01T00:00:00+00:00</time>
        <ele>519.0</ele>
      </trkpt>
      <trkpt lat="51.745682" lon="10.391777">
        <time>1970-01-01T00:00:00+00:00</time>
        <ele>519.0</ele>
      </trkpt>
      <trkpt lat="51.745745" lon="10.392495">
        <time>1970-01-01T00:00:00+00:00</time>
        <ele>532.0</ele>
      </trkpt>
      <trkpt lat="51.745728" lon="10.39293">
        <time>1970-01-01T00:00:00+00:00</time>
        <ele>544.0</ele>
      </trkpt>
      <trkpt lat="51.745656" lon="10.39387">
        <time>1970-01-01T00:00:00+00:00</time>
        <ele>557.0</ele>
      </trkpt>
      <trkpt lat="51.745722" lon="10.394284">
        <time>1970-01-01T00:00:00+00:00</time>
        <ele>559.0</ele>
      </trkpt>
      <trkpt lat="51.746412" lon="10.39579">
        <time>1970-01-01T00:00:00+00:00</time>
        <ele>575.0</ele>
      </trkpt>
      <trkpt lat="51.746677" lon="10.396442">
        <time>1970-01-01T00:00:00+00:00</time>
        <ele>580.0</ele>
      </trkpt>
      <trkpt lat="51.7471" lon="10.397632">
        <time>1970-01-01T00:00:00+00:00</time>
        <ele>587.0</ele>
      </trkpt>
      <trkpt lat="51.747127" lon="10.397806">
        <time>1970-01-01T00:00:00+00:00</time>
        <ele>588.0</ele>
      </trkpt>
      <trkpt lat="51.747287" lon="10.398818">
        <time>1970-01-01T00:00:00+00:00</time>
        <ele>598.0</ele>
      </trkpt>
      <trkpt lat="51.747552" lon="10.399978">
        <time>1970-01-01T00:00:00+00:00</time>
        <ele>607.0</ele>
      </trkpt>
      <trkpt lat="51.747543" lon="10.400758">
        <time>1970-01-01T00:00:00+00:00</time>
        <ele>609.0</ele>
      </trkpt>
      <trkpt lat="51.747587" lon="10.401254">
        <time>1970-01-01T00:00:00+00:00</time>
        <ele>608.0</ele>
      </trkpt>
      <trkpt lat="51.747621" lon="10.401785">
        <time>1970-01-01T00:00:00+00:00</time>
        <ele>607.0</ele>
      </trkpt>
      <trkpt lat="51.747744" lon="10.402201">
        <time>1970-01-01T00:00:00+00:00</time>
        <ele>610.0</ele>
      </trkpt>
      <trkpt lat="51.747838" lon="10.402668">
        <time>1970-01-01T00:00:00+00:00</time>
        <ele>616.0</ele>
      </trkpt>
      <trkpt lat="51.747814" lon="10.403677">
        <time>1970-01-01T00:00:00+00:00</time>
        <ele>622.0</ele>
      </trkpt>
      <trkpt lat="51.747878" lon="10.404041">
        <time>1970-01-01T00:00:00+00:00</time>
        <ele>625.0</ele>
      </trkpt>
      <trkpt lat="51.74799" lon="10.404423">
        <time>1970-01-01T00:00:00+00:00</time>
        <ele>628.0</ele>
      </trkpt>
      <trkpt lat="51.74815" lon="10.405768">
        <time>1970-01-01T00:00:00+00:00</time>
        <ele>646.0</ele>
      </trkpt>
      <trkpt lat="51.748143" lon="10.406688">
        <time>1970-01-01T00:00:00+00:00</time>
        <ele>650.0</ele>
      </trkpt>
      <trkpt lat="51.748028" lon="10.407582">
        <time>1970-01-01T00:00:00+00:00</time>
        <ele>658.0</ele>
      </trkpt>
      <trkpt lat="51.747937" lon="10.407832">
        <time>1970-01-01T00:00:00+00:00</time>
        <ele>662.0</ele>
      </trkpt>
      <trkpt lat="51.7479" lon="10.408044">
        <time>1970-01-01T00:00:00+00:00</time>
        <ele>664.0</ele>
      </trkpt>
      <trkpt lat="51.747941" lon="10.408653">
        <time>1970-01-01T00:00:00+00:00</time>
        <ele>666.0</ele>
      </trkpt>
      <trkpt lat="51.747941" lon="10.409081">
        <time>1970-01-01T00:00:00+00:00</time>
        <ele>667.0</ele>
      </trkpt>
      <trkpt lat="51.74782" lon="10.409562">
        <time>1970-01-01T00:00:00+00:00</time>
        <ele>670.0</ele>
      </trkpt>
      <trkpt lat="51.747487" lon="10.410024">
        <time>1970-01-01T00:00:00+00:00</time>
        <ele>675.0</ele>
      </trkpt>
      <trkpt lat="51.747089" lon="10.410327">
        <time>1970-01-01T00:00:00+00:00</time>
        <ele>678.0</ele>
      </trkpt>
      <trkpt lat="51.746809" lon="10.410876">
        <time>1970-01-01T00:00:00+00:00</time>
        <ele>676.0</ele>
      </trkpt>
      <trkpt lat="51.746563" lon="10.411249">
        <time>1970-01-01T00:00:00+00:00</time>
        <ele>679.0</ele>
      </trkpt>
      <trkpt lat="51.746318" lon="10.411802">
        <time>1970-01-01T00:00:00+00:00</time>
        <ele>682.0</ele>
      </trkpt>
      <trkpt lat="51.746208" lon="10.411973">
        <time>1970-01-01T00:00:00+00:00</time>
        <ele>686.0</ele>
      </trkpt>
      <trkpt lat="51.745919" lon="10.412648">
        <time>1970-01-01T00:00:00+00:00</time>
        <ele>692.0</ele>
      </trkpt>
      <trkpt lat="51.745847" lon="10.412889">
        <time>1970-01-01T00:00:00+00:00</time>
        <ele>693.0</ele>
      </trkpt>
      <trkpt lat="51.745446" lon="10.413542">
        <time>1970-01-01T00:00:00+00:00</time>
        <ele>696.0</ele>
      </trkpt>
      <trkpt lat="51.745404" lon="10.413773">
        <time>1970-01-01T00:00:00+00:00</time>
        <ele>697.0</ele>
      </trkpt>
      <trkpt lat="51.745385" lon="10.414277">
        <time>1970-01-01T00:00:00+00:00</time>
        <ele>699.0</ele>
      </trkpt>
      <trkpt lat="51.745397" lon="10.415122">
        <time>1970-01-01T00:00:00+00:00</time>
        <ele>703.0</ele>
      </trkpt>
      <trkpt lat="51.745131" lon="10.41595">
        <time>1970-01-01T00:00:00+00:00</time>
        <ele>708.0</ele>
      </trkpt>
      <trkpt lat="51.745062" lon="10.416513">
        <time>1970-01-01T00:00:00+00:00</time>
        <ele>714.0</ele>
      </trkpt>
      <trkpt lat="51.74479" lon="10.41703">
        <time>1970-01-01T00:00:00+00:00</time>
        <ele>724.0</ele>
      </trkpt>
      <trkpt lat="51.744459" lon="10.417533">
        <time>1970-01-01T00:00:00+00:00</time>
        <ele>726.0</ele>
      </trkpt>
      <trkpt lat="51.744411" lon="10.417657">
        <time>1970-01-01T00:00:00+00:00</time>
        <ele>727.0</ele>
      </trkpt>
      <trkpt lat="51.744274" lon="10.4177">
        <time>1970-01-01T00:00:00+00:00</time>
        <ele>727.0</ele>
      </trkpt>
      <trkpt lat="51.74375" lon="10.417765">
        <time>1970-01-01T00:00:00+00:00</time>
        <ele>739.0</ele>
      </trkpt>
      <trkpt lat="51.742819" lon="10.418033">
        <time>1970-01-01T00:00:00+00:00</time>
        <ele>753.0</ele>
      </trkpt>
      <trkpt lat="51.742631" lon="10.418063">
        <time>1970-01-01T00:00:00+00:00</time>
        <ele>756.0</ele>
      </trkpt>
      <trkpt lat="51.74243" lon="10.418141">
        <time>1970-01-01T00:00:00+00:00</time>
        <ele>760.0</ele>
      </trkpt>
      <trkpt lat="51.742194" lon="10.418279">
        <time>1970-01-01T00:00:00+00:00</time>
        <ele>765.0</ele>
      </trkpt>
      <trkpt lat="51.741664" lon="10.418415">
        <time>1970-01-01T00:00:00+00:00</time>
        <ele>774.0</ele>
      </trkpt>
      <trkpt lat="51.741365" lon="10.418465">
        <time>1970-01-01T00:00:00+00:00</time>
        <ele>778.0</ele>
      </trkpt>
      <trkpt lat="51.741052" lon="10.418478">
        <time>1970-01-01T00:00:00+00:00</time>
        <ele>780.0</ele>
      </trkpt>
      <trkpt lat="51.74071" lon="10.418453">
        <time>1970-01-01T00:00:00+00:00</time>
        <ele>783.0</ele>
      </trkpt>
      <trkpt lat="51.740384" lon="10.418472">
        <time>1970-01-01T00:00:00+00:00</time>
        <ele>786.0</ele>
      </trkpt>
      <trkpt lat="51.740019" lon="10.41845">
        <time>1970-01-01T00:00:00+00:00</time>
        <ele>790.0</ele>
      </trkpt>
      <trkpt lat="51.739921" lon="10.418481">
        <time>1970-01-01T00:00:00+00:00</time>
        <ele>792.0</ele>
      </trkpt>
      <trkpt lat="51.739849" lon="10.418474">
        <time>1970-01-01T00:00:00+00:00</time>
        <ele>792.0</ele>
      </trkpt>
      <trkpt lat="51.739603" lon="10.418256">
        <time>1970-01-01T00:00:00+00:00</time>
        <ele>791.0</ele>
      </trkpt>
      <trkpt lat="51.739166" lon="10.417984">
        <time>1970-01-01T00:00:00+00:00</time>
        <ele>791.0</ele>
      </trkpt>
      <trkpt lat="51.7391" lon="10.417935">
        <time>1970-01-01T00:00:00+00:00</time>
        <ele>791.0</ele>
      </trkpt>
      <trkpt lat="51.739014" lon="10.41787">
        <time>1970-01-01T00:00:00+00:00</time>
        <ele>791.0</ele>
      </trkpt>
      <trkpt lat="51.737714" lon="10.417521">
        <time>1970-01-01T00:00:00+00:00</time>
        <ele>802.0</ele>
      </trkpt>
      <trkpt lat="51.737428" lon="10.417397">
        <time>1970-01-01T00:00:00+00:00</time>
        <ele>804.0</ele>
      </trkpt>
      <trkpt lat="51.736972" lon="10.417356">
        <time>1970-01-01T00:00:00+00:00</time>
        <ele>809.0</ele>
      </trkpt>
      <trkpt lat="51.736758" lon="10.41723">
        <time>1970-01-01T00:00:00+00:00</time>
        <ele>810.0</ele>
      </trkpt>
      <trkpt lat="51.736638" lon="10.417126">
        <time>1970-01-01T00:00:00+00:00</time>
        <ele>810.0</ele>
      </trkpt>
      <trkpt lat="51.73649" lon="10.417076">
        <time>1970-01-01T00:00:00+00:00</time>
        <ele>811.0</ele>
      </trkpt>
      <trkpt lat="51.736303" lon="10.417006">
        <time>1970-01-01T00:00:00+00:00</time>
        <ele>812.0</ele>
      </trkpt>
      <trkpt lat="51.735986" lon="10.416812">
        <time>1970-01-01T00:00:00+00:00</time>
        <ele>813.0</ele>
      </trkpt>
      <trkpt lat="51.735481" lon="10.416411">
        <time>1970-01-01T00:00:00+00:00</time>
        <ele>816.0</ele>
      </trkpt>
      <trkpt lat="51.734861" lon="10.415597">
        <time>1970-01-01T00:00:00+00:00</time>
        <ele>818.0</ele>
      </trkpt>
      <trkpt lat="51.734626" lon="10.415177">
        <time>1970-01-01T00:00:00+00:00</time>
        <ele>818.0</ele>
      </trkpt>
      <trkpt lat="51.734573" lon="10.415043">
        <time>1970-01-01T00:00:00+00:00</time>
        <ele>818.0</ele>
      </trkpt>
      <trkpt lat="51.734505" lon="10.414855">
        <time>1970-01-01T00:00:00+00:00</time>
        <ele>817.0</ele>
      </trkpt>
      <trkpt lat="51.73446" lon="10.414789">
        <time>1970-01-01T00:00:00+00:00</time>
        <ele>817.0</ele>
      </trkpt>
      <trkpt lat="51.734423" lon="10.414742">
        <time>1970-01-01T00:00:00+00:00</time>
        <ele>817.0</ele>
      </trkpt>
      <trkpt lat="51.734423" lon="10.414742">
        <time>1970-01-01T00:00:00+00:00</time>
        <ele>817.0</ele>
      </trkpt>
      <trkpt lat="51.734399" lon="10.41471">
        <time>1970-01-01T00:00:00+00:00</time>
        <ele>817.0</ele>
      </trkpt>
      <trkpt lat="51.734285" lon="10.414625">
        <time>1970-01-01T00:00:00+00:00</time>
        <ele>817.0</ele>
      </trkpt>
      <trkpt lat="51.733828" lon="10.414396">
        <time>1970-01-01T00:00:00+00:00</time>
        <ele>817.0</ele>
      </trkpt>
      <trkpt lat="51.733651" lon="10.414246">
        <time>1970-01-01T00:00:00+00:00</time>
        <ele>817.0</ele>
      </trkpt>
      <trkpt lat="51.733389" lon="10.414023">
        <time>1970-01-01T00:00:00+00:00</time>
        <ele>817.0</ele>
      </trkpt>
      <trkpt lat="51.733258" lon="10.413932">
        <time>1970-01-01T00:00:00+00:00</time>
        <ele>818.0</ele>
      </trkpt>
      <trkpt lat="51.732995" lon="10.413692">
        <time>1970-01-01T00:00:00+00:00</time>
        <ele>817.0</ele>
      </trkpt>
      <trkpt lat="51.732794" lon="10.413418">
        <time>1970-01-01T00:00:00+00:00</time>
        <ele>816.0</ele>
      </trkpt>
      <trkpt lat="51.732674" lon="10.413202">
        <time>1970-01-01T00:00:00+00:00</time>
        <ele>814.0</ele>
      </trkpt>
      <trkpt lat="51.73253" lon="10.41285">
        <time>1970-01-01T00:00:00+00:00</time>
        <ele>813.0</ele>
      </trkpt>
      <trkpt lat="51.732414" lon="10.412726">
        <time>1970-01-01T00:00:00+00:00</time>
        <ele>813.0</ele>
      </trkpt>
      <trkpt lat="51.732339" lon="10.412606">
        <time>1970-01-01T00:00:00+00:00</time>
        <ele>813.0</ele>
      </trkpt>
      <trkpt lat="51.731833" lon="10.411979">
        <time>1970-01-01T00:00:00+00:00</time>
        <ele>810.0</ele>
      </trkpt>
      <trkpt lat="51.73179" lon="10.411906">
        <time>1970-01-01T00:00:00+00:00</time>
        <ele>809.0</ele>
      </trkpt>
      <trkpt lat="51.731631" lon="10.411687">
        <time>1970-01-01T00:00:00+00:00</time>
        <ele>809.0</ele>
      </trkpt>
      <trkpt lat="51.731503" lon="10.411418">
        <time>1970-01-01T00:00:00+00:00</time>
        <ele>808.0</ele>
      </trkpt>
      <trkpt lat="51.731448" lon="10.411264">
        <time>1970-01-01T00:00:00+00:00</time>
        <ele>808.0</ele>
      </trkpt>
      <trkpt lat="51.731352" lon="10.410992">
        <time>1970-01-01T00:00:00+00:00</time>
        <ele>808.0</ele>
      </trkpt>
      <trkpt lat="51.731169" lon="10.410039">
        <time>1970-01-01T00:00:00+00:00</time>
        <ele>807.0</ele>
      </trkpt>
      <trkpt lat="51.73084" lon="10.409086">
        <time>1970-01-01T00:00:00+00:00</time>
        <ele>807.0</ele>
      </trkpt>
      <trkpt lat="51.730644" lon="10.408661">
        <time>1970-01-01T00:00:00+00:00</time>
        <ele>808.0</ele>
      </trkpt>
      <trkpt lat="51.730076" lon="10.407827">
        <time>1970-01-01T00:00:00+00:00</time>
        <ele>809.0</ele>
      </trkpt>
      <trkpt lat="51.729867" lon="10.40733">
        <time>1970-01-01T00:00:00+00:00</time>
        <ele>810.0</ele>
      </trkpt>
      <trkpt lat="51.729776" lon="10.407011">
        <time>1970-01-01T00:00:00+00:00</time>
        <ele>811.0</ele>
      </trkpt>
      <trkpt lat="51.729735" lon="10.406934">
        <time>1970-01-01T00:00:00+00:00</time>
        <ele>810.0</ele>
      </trkpt>
      <trkpt lat="51.729687" lon="10.406859">
        <time>1970-01-01T00:00:00+00:00</time>
        <ele>810.0</ele>
      </trkpt>
      <trkpt lat="51.729416" lon="10.406388">
        <time>1970-01-01T00:00:00+00:00</time>
        <ele>810.0</ele>
      </trkpt>
      <trkpt lat="51.729386" lon="10.406312">
        <time>1970-01-01T00:00:00+00:00</time>
        <ele>810.0</ele>
      </trkpt>
      <trkpt lat="51.729191" lon="10.405873">
        <time>1970-01-01T00:00:00+00:00</time>
        <ele>810.0</ele>
      </trkpt>
      <trkpt lat="51.728942" lon="10.405421">
        <time>1970-01-01T00:00:00+00:00</time>
        <ele>811.0</ele>
      </trkpt>
      <trkpt lat="51.728696" lon="10.404855">
        <time>1970-01-01T00:00:00+00:00</time>
        <ele>811.0</ele>
      </trkpt>
      <trkpt lat="51.728378" lon="10.404278">
        <time>1970-01-01T00:00:00+00:00</time>
        <ele>811.0</ele>
      </trkpt>
      <trkpt lat="51.728144" lon="10.403696">
        <time>1970-01-01T00:00:00+00:00</time>
        <ele>811.0</ele>
      </trkpt>
      <trkpt lat="51.728113" lon="10.403585">
        <time>1970-01-01T00:00:00+00:00</time>
        <ele>811.0</ele>
      </trkpt>
      <trkpt lat="51.728165" lon="10.403495">
        <time>1970-01-01T00:00:00+00:00</time>
        <ele>811.0</ele>
      </trkpt>
      <trkpt lat="51.728233" lon="10.403349">
        <time>1970-01-01T00:00:00+00:00</time>
        <ele>811.0</ele>
      </trkpt>
      <trkpt lat="51.72824" lon="10.403256">
        <time>1970-01-01T00:00:00+00:00</time>
        <ele>812.0</ele>
      </trkpt>
      <trkpt lat="51.728206" lon="10.403098">
        <time>1970-01-01T00:00:00+00:00</time>
        <ele>812.0</ele>
      </trkpt>
      <trkpt lat="51.728145" lon="10.40296">
        <time>1970-01-01T00:00:00+00:00</time>
        <ele>812.0</ele>
      </trkpt>
      <trkpt lat="51.728094" lon="10.402902">
        <time>1970-01-01T00:00:00+00:00</time>
        <ele>812.0</ele>
      </trkpt>
      <trkpt lat="51.728124" lon="10.402853">
        <time>1970-01-01T00:00:00+00:00</time>
        <ele>812.0</ele>
      </trkpt>
      <trkpt lat="51.728258" lon="10.402579">
        <time>1970-01-01T00:00:00+00:00</time>
        <ele>811.0</ele>
      </trkpt>
      <trkpt lat="51.728394" lon="10.40238">
        <time>1970-01-01T00:00:00+00:00</time>
        <ele>810.0</ele>
      </trkpt>
      <trkpt lat="51.728607" lon="10.40211">
        <time>1970-01-01T00:00:00+00:00</time>
        <ele>808.0</ele>
      </trkpt>
      <trkpt lat="51.729357" lon="10.400867">
        <time>1970-01-01T00:00:00+00:00</time>
        <ele>796.0</ele>
      </trkpt>
      <trkpt lat="51.729838" lon="10.400005">
        <time>1970-01-01T00:00:00+00:00</time>
        <ele>784.0</ele>
      </trkpt>
      <trkpt lat="51.73013" lon="10.399535">
        <time>1970-01-01T00:00:00+00:00</time>
        <ele>777.0</ele>
      </trkpt>
      <trkpt lat="51.730386" lon="10.399039">
        <time>1970-01-01T00:00:00+00:00</time>
        <ele>773.0</ele>
      </trkpt>
      <trkpt lat="51.730468" lon="10.398746">
        <time>1970-01-01T00:00:00+00:00</time>
        <ele>772.0</ele>
      </trkpt>
      <trkpt lat="51.73142" lon="10.397147">
        <time>1970-01-01T00:00:00+00:00</time>
        <ele>756.0</ele>
      </trkpt>
      <trkpt lat="51.731638" lon="10.396676">
        <time>1970-01-01T00:00:00+00:00</time>
        <ele>753.0</ele>
      </trkpt>
      <trkpt lat="51.732135" lon="10.395809">
        <time>1970-01-01T00:00:00+00:00</time>
        <ele>741.0</ele>
      </trkpt>
      <trkpt lat="51.732359" lon="10.395368">
        <time>1970-01-01T00:00:00+00:00</time>
        <ele>739.0</ele>
      </trkpt>
      <trkpt lat="51.732438" lon="10.394882">
        <time>1970-01-01T00:00:00+00:00</time>
        <ele>737.0</ele>
      </trkpt>
      <trkpt lat="51.732782" lon="10.394733">
        <time>1970-01-01T00:00:00+00:00</time>
        <ele>734.0</ele>
      </trkpt>
      <trkpt lat="51.733205" lon="10.394347">
        <time>1970-01-01T00:00:00+00:00</time>
        <ele>731.0</ele>
      </trkpt>
      <trkpt lat="51.733552" lon="10.394195">
        <time>1970-01-01T00:00:00+00:00</time>
        <ele>724.0</ele>
      </trkpt>
      <trkpt lat="51.733804" lon="10.394234">
        <time>1970-01-01T00:00:00+00:00</time>
        <ele>716.0</ele>
      </trkpt>
      <trkpt lat="51.734144" lon="10.394613">
        <time>1970-01-01T00:00:00+00:00</time>
        <ele>710.0</ele>
      </trkpt>
      <trkpt lat="51.734411" lon="10.394817">
        <time>1970-01-01T00:00:00+00:00</time>
        <ele>701.0</ele>
      </trkpt>
      <trkpt lat="51.734586" lon="10.394737">
        <time>1970-01-01T00:00:00+00:00</time>
        <ele>696.0</ele>
      </trkpt>
      <trkpt lat="51.734883" lon="10.394555">
        <time>1970-01-01T00:00:00+00:00</time>
        <ele>685.0</ele>
      </trkpt>
      <trkpt lat="51.735214" lon="10.394042">
        <time>1970-01-01T00:00:00+00:00</time>
        <ele>677.0</ele>
      </trkpt>
      <trkpt lat="51.735507" lon="10.393338">
        <time>1970-01-01T00:00:00+00:00</time>
        <ele>667.0</ele>
      </trkpt>
      <trkpt lat="51.735675" lon="10.393064">
        <time>1970-01-01T00:00:00+00:00</time>
        <ele>660.0</ele>
      </trkpt>
      <trkpt lat="51.73588" lon="10.393007">
        <time>1970-01-01T00:00:00+00:00</time>
        <ele>650.0</ele>
      </trkpt>
      <trkpt lat="51.73603" lon="10.393032">
        <time>1970-01-01T00:00:00+00:00</time>
        <ele>645.0</ele>
      </trkpt>
      <trkpt lat="51.736131" lon="10.393156">
        <time>1970-01-01T00:00:00+00:00</time>
        <ele>642.0</ele>
      </trkpt>
      <trkpt lat="51.736202" lon="10.393121">
        <time>1970-01-01T00:00:00+00:00</time>
        <ele>638.0</ele>
      </trkpt>
      <trkpt lat="51.736298" lon="10.39297">
        <time>1970-01-01T00:00:00+00:00</time>
        <ele>634.0</ele>
      </trkpt>
      <trkpt lat="51.736507" lon="10.39284">
        <time>1970-01-01T00:00:00+00:00</time>
        <ele>626.0</ele>
      </trkpt>
      <trkpt lat="51.736642" lon="10.392711">
        <time>1970-01-01T00:00:00+00:00</time>
        <ele>623.0</ele>
      </trkpt>
      <trkpt lat="51.736817" lon="10.392512">
        <time>1970-01-01T00:00:00+00:00</time>
        <ele>619.0</ele>
      </trkpt>
      <trkpt lat="51.736965" lon="10.392767">
        <time>1970-01-01T00:00:00+00:00</time>
        <ele>615.0</ele>
      </trkpt>
      <trkpt lat="51.737113" lon="10.39295">
        <time>1970-01-01T00:00:00+00:00</time>
        <ele>610.0</ele>
      </trkpt>
      <trkpt lat="51.737202" lon="10.393019">
        <time>1970-01-01T00:00:00+00:00</time>
        <ele>606.0</ele>
      </trkpt>
      <trkpt lat="51.737276" lon="10.392996">
        <time>1970-01-01T00:00:00+00:00</time>
        <ele>603.0</ele>
      </trkpt>
      <trkpt lat="51.737358" lon="10.392925">
        <time>1970-01-01T00:00:00+00:00</time>
        <ele>600.0</ele>
      </trkpt>
      <trkpt lat="51.737378" lon="10.392859">
        <time>1970-01-01T00:00:00+00:00</time>
        <ele>599.0</ele>
      </trkpt>
      <trkpt lat="51.737395" lon="10.392722">
        <time>1970-01-01T00:00:00+00:00</time>
        <ele>599.0</ele>
      </trkpt>
      <trkpt lat="51.737383" lon="10.392379">
        <time>1970-01-01T00:00:00+00:00</time>
        <ele>600.0</ele>
      </trkpt>
      <trkpt lat="51.737351" lon="10.392185">
        <time>1970-01-01T00:00:00+00:00</time>
        <ele>599.0</ele>
      </trkpt>
      <trkpt lat="51.737287" lon="10.392025">
        <time>1970-01-01T00:00:00+00:00</time>
        <ele>600.0</ele>
      </trkpt>
      <trkpt lat="51.737543" lon="10.391821">
        <time>1970-01-01T00:00:00+00:00</time>
        <ele>588.0</ele>
      </trkpt>
      <trkpt lat="51.737908" lon="10.391665">
        <time>1970-01-01T00:00:00+00:00</time>
        <ele>583.0</ele>
      </trkpt>
      <trkpt lat="51.73815" lon="10.391401">
        <time>1970-01-01T00:00:00+00:00</time>
        <ele>582.0</ele>
      </trkpt>
      <trkpt lat="51.738238" lon="10.391189">
        <time>1970-01-01T00:00:00+00:00</time>
        <ele>582.0</ele>
      </trkpt>
      <trkpt lat="51.738358" lon="10.3909">
        <time>1970-01-01T00:00:00+00:00</time>
        <ele>580.0</ele>
      </trkpt>
      <trkpt lat="51.738767" lon="10.390438">
        <time>1970-01-01T00:00:00+00:00</time>
        <ele>571.0</ele>
      </trkpt>
      <trkpt lat="51.73919" lon="10.390108">
        <time>1970-01-01T00:00:00+00:00</time>
        <ele>565.0</ele>
      </trkpt>
      <trkpt lat="51.73955" lon="10.389941">
        <time>1970-01-01T00:00:00+00:00</time>
        <ele>564.0</ele>
      </trkpt>
      <trkpt lat="51.739967" lon="10.389833">
        <time>1970-01-01T00:00:00+00:00</time>
        <ele>558.0</ele>
      </trkpt>
      <trkpt lat="51.740618" lon="10.389883">
        <time>1970-01-01T00:00:00+00:00</time>
        <ele>549.0</ele>
      </trkpt>
      <trkpt lat="51.741242" lon="10.39003">
        <time>1970-01-01T00:00:00+00:00</time>
        <ele>535.0</ele>
      </trkpt>
      <trkpt lat="51.741827" lon="10.390308">
        <time>1970-01-01T00:00:00+00:00</time>
        <ele>518.0</ele>
      </trkpt>
      <trkpt lat="51.742092" lon="10.390492">
        <time>1970-01-01T00:00:00+00:00</time>
        <ele>509.0</ele>
      </trkpt>
      <trkpt lat="51.742381" lon="10.390289">
        <time>1970-01-01T00:00:00+00:00</time>
        <ele>506.0</ele>
      </trkpt>
      <trkpt lat="51.742627" lon="10.390268">
        <time>1970-01-01T00:00:00+00:00</time>
        <ele>500.0</ele>
      </trkpt>
      <trkpt lat="51.742862" lon="10.389751">
        <time>1970-01-01T00:00:00+00:00</time>
        <ele>499.0</ele>
      </trkpt>
      <trkpt lat="51.743125" lon="10.389495">
        <time>1970-01-01T00:00:00+00:00</time>
        <ele>494.0</ele>
      </trkpt>
      <trkpt lat="51.743304" lon="10.389463">
        <time>1970-01-01T00:00:00+00:00</time>
        <ele>490.0</ele>
      </trkpt>
      <trkpt lat="51.743557" lon="10.389249">
        <time>1970-01-01T00:00:00+00:00</time>
        <ele>482.0</ele>
      </trkpt>
      <trkpt lat="51.744029" lon="10.388616">
        <time>1970-01-01T00:00:00+00:00</time>
        <ele>467.0</ele>
      </trkpt>
      <trkpt lat="51.744236" lon="10.388399">
        <time>1970-01-01T00:00:00+00:00</time>
        <ele>458.0</ele>
      </trkpt>
      <trkpt lat="51.744402" lon="10.388139">
        <time>1970-01-01T00:00:00+00:00</time>
        <ele>451.0</ele>
      </trkpt>
      <trkpt lat="51.744502" lon="10.388324">
        <time>1970-01-01T00:00:00+00:00</time>
        <ele>450.0</ele>
      </trkpt>
      <trkpt lat="51.744402" lon="10.388139">
        <time>1970-01-01T00:00:00+00:00</time>
        <ele>451.0</ele>
      </trkpt>
      <trkpt lat="51.744502" lon="10.388324">
        <time>1970-01-01T00:00:00+00:00</time>
        <ele>450.0</ele>
      </trkpt>
      <trkpt lat="51.744619" lon="10.388199">
        <time>1970-01-01T00:00:00+00:00</time>
        <ele>450.0</ele>
      </trkpt>
      <trkpt lat="51.744678" lon="10.388104">
        <time>1970-01-01T00:00:00+00:00</time>
        <ele>451.0</ele>
      </trkpt>
      <trkpt lat="51.744647" lon="10.387812">
        <time>1970-01-01T00:00:00+00:00</time>
        <ele>452.0</ele>
      </trkpt>
      <trkpt lat="51.744547" lon="10.386886">
        <time>1970-01-01T00:00:00+00:00</time>
        <ele>456.0</ele>
      </trkpt>
      <trkpt lat="51.744488" lon="10.385652">
        <time>1970-01-01T00:00:00+00:00</time>
        <ele>477.0</ele>
      </trkpt>
      <trkpt lat="51.744485" lon="10.385091">
        <time>1970-01-01T00:00:00+00:00</time>
        <ele>485.0</ele>
      </trkpt>
      <trkpt lat="51.744613" lon="10.385055">
        <time>1970-01-01T00:00:00+00:00</time>
        <ele>492.0</ele>
      </trkpt>
      <trkpt lat="51.744674" lon="10.384869">
        <time>1970-01-01T00:00:00+00:00</time>
        <ele>495.0</ele>
      </trkpt>
      <trkpt lat="51.744727" lon="10.384771">
        <time>1970-01-01T00:00:00+00:00</time>
        <ele>497.0</ele>
      </trkpt>
      <trkpt lat="51.744822" lon="10.384792">
        <time>1970-01-01T00:00:00+00:00</time>
        <ele>500.0</ele>
      </trkpt>
      <trkpt lat="51.744893" lon="10.384921">
        <time>1970-01-01T00:00:00+00:00</time>
        <ele>502.0</ele>
      </trkpt>
      <trkpt lat="51.745675" lon="10.384317">
        <time>1970-01-01T00:00:00+00:00</time>
        <ele>508.0</ele>
      </trkpt>
      <trkpt lat="51.746232" lon="10.383711">
        <time>1970-01-01T00:00:00+00:00</time>
        <ele>496.0</ele>
      </trkpt>
      <trkpt lat="51.746328" lon="10.383921">
        <time>1970-01-01T00:00:00+00:00</time>
        <ele>497.0</ele>
      </trkpt>
      <trkpt lat="51.746597" lon="10.384217">
        <time>1970-01-01T00:00:00+00:00</time>
        <ele>497.0</ele>
      </trkpt>
      <trkpt lat="51.748468" lon="10.38388">
        <time>1970-01-01T00:00:00+00:00</time>
        <ele>466.0</ele>
      </trkpt>
      <trkpt lat="51.74878" lon="10.384034">
        <time>1970-01-01T00:00:00+00:00</time>
        <ele>464.0</ele>
      </trkpt>
      <trkpt lat="51.750051" lon="10.384963">
        <time>1970-01-01T00:00:00+00:00</time>
        <ele>430.0</ele>
      </trkpt>
      <trkpt lat="51.750286" lon="10.385117">
        <time>1970-01-01T00:00:00+00:00</time>
        <ele>420.0</ele>
      </trkpt>
      <trkpt lat="51.750417" lon="10.385167">
        <time>1970-01-01T00:00:00+00:00</time>
        <ele>419.0</ele>
      </trkpt>
      <trkpt lat="51.750772" lon="10.385004">
        <time>1970-01-01T00:00:00+00:00</time>
        <ele>419.0</ele>
      </trkpt>
      <trkpt lat="51.751162" lon="10.38489">
        <time>1970-01-01T00:00:00+00:00</time>
        <ele>412.0</ele>
      </trkpt>
      <trkpt lat="51.751348" lon="10.384917">
        <time>1970-01-01T00:00:00+00:00</time>
        <ele>407.0</ele>
      </trkpt>
      <trkpt lat="51.751435" lon="10.385031">
        <time>1970-01-01T00:00:00+00:00</time>
        <ele>405.0</ele>
      </trkpt>
      <trkpt lat="51.751542" lon="10.38496">
        <time>1970-01-01T00:00:00+00:00</time>
        <ele>401.0</ele>
      </trkpt>
      <trkpt lat="51.751729" lon="10.385183">
        <time>1970-01-01T00:00:00+00:00</time>
        <ele>393.0</ele>
      </trkpt>
      <trkpt lat="51.751882" lon="10.385237">
        <time>1970-01-01T00:00:00+00:00</time>
        <ele>389.0</ele>
      </trkpt>
      <trkpt lat="51.751975" lon="10.385207">
        <time>1970-01-01T00:00:00+00:00</time>
        <ele>387.0</ele>
      </trkpt>
    </trkseg>
  </trk>
</gpx>
